Other Public Products
Issued by NWS Charleston, SC

Current Version | Previous Version | Graphics & Text | Print | Product List | Glossary On
Versions: 1 2 3 4 5 6 7 8 9 10 11 12 13 14 15 16 17 18 19 20 21 22 23 24 25 26 27 28 29 30 31 32 33 34 35 36 37 38 39 40 41 42 43 44 45 46 47 48 49 50
000
FPUS82 KCHS 221612
OPUCHS

TEST...KCHS/KSAV Gateway Observations...TEST
National Weather Service Charleston SC
1200 PM EDT TUE AUG 22 2017

NOTE: "fair" indicates few or no clouds below 12,000 feet with no
significant weather and/or obstructions to visibility.

SCZ050-WAZ558-NCZ071-TXZ119-213-PAZ071-DCZ001-FLZ074-172-MI076-
NYZ176-178-MAZ016-IL014-TNZ027-NJZ106-GAZ044-MD014-221700-

...Gateway Observations for Charleston International...

CITY           SKY/WX    TMP DP  RH WIND       PRES   REMARKS
Chas Airport   PTSUNNY   86  74  67 SW8       30.11F HX  94
Seattle        SUNNY     68  56  65 W3        30.03S
Charlotte      MOSUNNY   88  75  65 VRB5      30.13S HX  97
Dallas DFW     MOSUNNY   91  71  51 W7        30.06R HX  97
Dallas Love    MOSUNNY   90  70  51 SW6       30.07S HX  95
Philladelphia  MOSUNNY   85  73  67 SW12      29.98F HX  91
Wash National  MOSUNNY   85  77  77 S12       30.00F HX  95
Baltimore      MOSUNNY   87  75  67 S6        29.99F HX  96
Miami          PTSUNNY   90  77  65 E8        30.02F HX 103
Detroit        CLOUDY    77  68  73 SW17      29.81S
Newark         MOSUNNY   85  74  69 SW8       29.96F HX  92
Laguardia      PTSUNNY   85  74  69 S8        29.96F HX  92
J F K          MOSUNNY   83  76  79 S9        29.98F HX  91
Boston Logan   MOSUNNY   82  72  71 S13       29.94F
Ft. Lauderdale MOSUNNY   88  77  69 S10       30.01F HX 100
Chicago O`Hare CLOUDY    73  62  68 W18       29.88R
Chicago Midway CLOUDY    74  64  71 W17       29.88R
Houston Bush   MOSUNNY   87  73  62 CALM      30.09R HX  94
Houston Hobby  MOSUNNY   91  69  48 CALM      30.07S HX  96
Nashville      PTSUNNY   90  73  57 SW10G21   30.07S HX  98
Atlanta        MOSUNNY   86  70  58 W6        30.15S HX  90

$$

GAZ044-118-TXZ119-213-NCZ071-DCZ001-MDZ014-506-PAZ021-071-NJZ106-
NYZ176-178-MAZ106-OHZ011-021-055-MIZ076-KYZ091-ILZ014-INZ047-
MNZ060-ONZ431-221700-

...Gateway Observations for Savannah International...

CITY           SKY/WX    TMP DP  RH WIND       PRES   REMARKS
Savannah Arpt  PTSUNNY   88  75  65 N5        30.13F HX  97
Atlanta        MOSUNNY   86  70  58 W6        30.15S HX  90
Charlotte      MOSUNNY   88  75  65 VRB5      30.13S HX  97
Dallas DFW     MOSUNNY   91  71  51 W7        30.06R HX  97
Houston Bush   MOSUNNY   87  73  62 CALM      30.09R HX  94
Wash National  MOSUNNY   85  77  77 S12       30.00F HX  95
Wash Dulles    MOSUNNY   86  76  71 S10       30.00F HX  96
Baltimore      MOSUNNY   87  75  67 S6        29.99F HX  96
Philadelphia   MOSUNNY   85  73  67 SW12      29.98F HX  91
Newark         MOSUNNY   85  74  69 SW8       29.96F HX  92
Laguardia      PTSUNNY   85  74  69 S8        29.96F HX  92
J F K          MOSUNNY   83  76  79 S9        29.98F HX  91
Boston         MOSUNNY   82  72  71 S13       29.94F
Pittsburg      PTSUNNY   83  69  62 SW20G25   29.94F
Akron          PTSUNNY   83  69  62 SW18G26   29.90F
Cleveland      CLOUDY    80  71  74 SW15G31   29.86F
Cincinnati     CLOUDY    85  76  74 W10G21    29.97S HX  94
Columbus       PTSUNNY   84  74  73 SW17      29.93F HX  91
Detroit        CLOUDY    77  68  73 SW17      29.81S
Chicago O`Hare CLOUDY    73  62  68 W18       29.88R
Minneapolis    SUNNY     68  50  52 NW14      30.05R
Indianapolis   LGT RAIN  72  69  90 S14       29.95R
Toronto Canada PTSUNNY   77  70  78 SW14G24   29.72F

$$




USA.gov is the U.S. government's official web portal to all federal, state and local government web resources and services.